Home   Weather   Ganja   Past weeks
Flag for Azerbaijan

Past Weather in Ganja, Azerbaijan — Yesterday and Last 2 Weeks

Now
36 °F

Fog.


Feels Like: 30 °F
Forecast: 46 / 31 °F
Wind: 7 mph from East

Location: Gyanca Airport

Current Time: Jan 23, 2019 at 1:28:14 pm

Latest Report: Jan 23, 2019 at 1:00 pm


Visibility: 0 mi

Pressure: 30.18 "Hg

Humidity: 87%

Dew Point: 32 °F

Location of GanjaLocation

Past Weather in Ganja — Graph

°F

Ganja Temperature Yesterday

Maximum temperature yesterday: 54 °F (at 2:30 pm)
Minimum temperature yesterday: 28 °F (at 4:00 am)
Average temperature yesterday: 41 °F

High & Low Weather Summary for the Past Weeks

 TemperatureHumidityPressure
High63 °F (Jan 16, 3:00 pm)100% (Jan 8, 9:30 pm)30.30 "Hg (Jan 8, 9:30 pm)
Low23 °F (Jan 21, 5:00 am)18% (Jan 12, 4:00 pm)29.56 "Hg (Jan 17, 4:30 am)
Average40 °F62%29.98 "Hg
* Reported Jan 8 12:00 pm — Jan 23 12:00 pm, Ganja. Weather by CustomWeather, © 2019

Note: Actual official high and low records may vary slightly from our data, if they occured in-between our weather recording intervals... More about our weather records

Advertising

Ganja Weather History for the Previous 24 Hours

Scroll right to see more
 ConditionsComfort  
Time TempWeatherWind HumidityBarometerVisibility
12:00 pm
Wed, Jan 23
34 °FFog.9 mph93%30.18 "Hg2 mi
11:30 am36 °FPassing clouds.9 mph87%30.18 "HgN/A
11:00 am36 °FPassing clouds.12 mph81%30.18 "HgN/A
10:30 am37 °FPassing clouds.9 mph81%30.18 "HgN/A
10:00 am36 °FPassing clouds.7 mph81%30.15 "HgN/A
9:30 am37 °FPassing clouds.7 mph81%30.15 "HgN/A
9:00 am36 °FPassing clouds.7 mph81%30.15 "HgN/A
8:30 am32 °FPassing clouds.9 mph87%30.15 "HgN/A
8:00 am34 °FPassing clouds.9 mph75%30.12 "HgN/A
7:30 am36 °FPassing clouds.5 mph56%30.12 "HgN/A
7:00 am36 °FPassing clouds.12 mph56%30.09 "HgN/A
6:30 am34 °FPassing clouds.12 mph60%30.09 "HgN/A
6:00 am34 °FPassing clouds.12 mph60%30.09 "HgN/A
5:30 am34 °FPassing clouds.12 mph60%30.07 "HgN/A
5:00 am36 °FPassing clouds.7 mph60%30.07 "HgN/A
4:30 am36 °FPassing clouds.9 mph60%30.07 "HgN/A
4:00 am37 °FPassing clouds.9 mph60%30.07 "HgN/A
3:30 am39 °FPassing clouds.9 mph61%30.09 "HgN/A
3:00 am37 °FPassing clouds.12 mph60%30.07 "HgN/A
2:30 am36 °FPassing clouds.7 mph65%30.07 "HgN/A
2:00 am39 °FPassing clouds.9 mph65%30.07 "HgN/A
1:30 am41 °FPassing clouds.9 mph61%30.07 "HgN/A
12:30 am39 °FPassing clouds.7 mph61%30.04 "HgN/A
12:00 am41 °FPassing clouds.12 mph57%30.04 "HgN/A
11:30 pm
Tue, Jan 22
43 °FPassing clouds.12 mph57%30.04 "HgN/A
11:00 pm43 °FPassing clouds.14 mph53%30.04 "HgN/A
10:30 pm43 °FPassing clouds.12 mph53%30.01 "HgN/A
10:00 pm43 °FPassing clouds.9 mph53%30.01 "HgN/A
9:30 pm43 °FPassing clouds.7 mph53%30.01 "HgN/A
9:00 pm43 °FPassing clouds.2 mph53%30.01 "HgN/A
8:30 pm48 °FPassing clouds.14 mph43%30.01 "HgN/A
8:00 pm48 °FPassing clouds.14 mph43%29.98 "HgN/A
7:30 pm50 °FPassing clouds.14 mph37%29.98 "HgN/A
7:00 pm48 °FPassing clouds.12 mph40%29.98 "HgN/A
6:30 pm50 °FScattered clouds.12 mph35%29.98 "HgN/A
6:00 pm48 °FScattered clouds.9 mph37%29.95 "HgN/A
5:30 pm50 °FScattered clouds.9 mph35%29.95 "HgN/A
5:00 pm52 °FScattered clouds.12 mph32%29.95 "HgN/A
4:30 pm54 °FScattered clouds.5 mph28%29.95 "HgN/A
4:00 pm54 °FScattered clouds.9 mph28%29.95 "HgN/A
3:30 pm54 °FScattered clouds.9 mph26%29.95 "HgN/A
3:00 pm54 °FScattered clouds.7 mph26%29.95 "HgN/A
2:30 pm54 °FScattered clouds.5 mph26%29.95 "HgN/A
2:00 pm52 °FScattered clouds.9 mph26%29.95 "HgN/A
1:30 pm52 °FScattered clouds.9 mph28%29.95 "HgN/A
1:00 pm52 °FScattered clouds.9 mph28%29.98 "HgN/A
Weather by CustomWeather, © 2019

See weather overview